Regional Weather Roundup
Issued by NWS

Home | Current Version | Previous Version | Graphics & Text | Print | Product List | Glossary On
Versions: 1 2 3 4 5 6 7 8 9 10 11 12 13 14 15 16 17 18 19 20 21 22 23 24 25 26 27 28 29 30 31 32 33 34 35 36 37 38 39 40 41 42 43 44 45 46 47 48 49 50
000
ASUS43 KBIS 061210
RWRND

NORTH DAKOTA REGIONAL WEATHER ROUNDUP
NATIONAL WEATHER SERVICE BISMARCK ND
600 AM CST TUE DEC 06 2016

NOTE: "FAIR" INDICATES FEW OR NO CLOUDS BELOW 12,000 FEET WITH NO
SIGNIFICANT WEATHER AND/OR OBSTRUCTIONS TO VISIBILITY.


NDZ001>003-009>011-017-061300-
NORTHWEST NORTH DAKOTA

CITY           SKY/WX    TMP DP  RH WIND       PRES   REMARKS
WILLISTON      CLOUDY     7   1  76 NW16      29.99R HAZE    WCI -11
6HR MIN TEMP:   7; 6HR MAX TEMP:  10; 6HR PCP:  0.02;

MINOT          SNOW      11   8  88 W40G49    29.74R VSB 1/4 WCI -14
$$

NDZ018>021-031>035-040>046-061300-
SOUTHWEST NORTH DAKOTA

CITY           SKY/WX    TMP DP  RH WIND       PRES   REMARKS
BISMARCK       SNOW      11  10  96 NW29G43   29.77R VSB 1/2 WCI -11
6HR MIN TEMP:  11; 6HR MAX TEMP:  14; 6HR PCP:  0.34;

DICKINSON      LGT SNOW   4  -1  80 NW35G41   29.86R VSB 1   WCI -22
GARRISON         N/A      9   5  84 NW37G46   29.76R WCI -16
6HR MIN TEMP:   9; 6HR MAX TEMP:  14; 6HR PCP:  0.10;

HETTINGER ARPT MIX PCPN   6   1  80 NW32G38   29.89R WCI -18
$$

NDZ004>008-012>016-024-026-027-054-061300-
NORTHEAST NORTH DAKOTA

CITY           SKY/WX    TMP DP  RH WIND       PRES   REMARKS
GRAND FORKS    LGT SNOW  30  27  88 NW18      29.30F VSB 3/4 WCI  18
GRND FRKS AFB  LGT SNOW  28  27  93 N20       29.32S FOG     WCI  15
DEVILS LAKE    LGT SNOW  25  23  93 NW32G43   29.46R VSB 1   WCI   7
$$

NDZ022-023-025-028>030-036>039-047>053-061300-
SOUTHEAST NORTH DAKOTA

CITY           SKY/WX    TMP DP  RH WIND       PRES   REMARKS
FARGO          LGT SNOW  26  23  88 S13       29.39F FOG     WCI  15
6HR MIN TEMP:  24; 6HR MAX TEMP:  28; 6HR PCP:  0.01;

JAMESTOWN      SNOW      19  16  88 NW39G48   29.50R VSB 1/2 WCI  -2
$$




USA.gov is the U.S. government's official web portal to all federal, state and local government web resources and services.